Time,TemperatureF,DewpointF,PressureIn,WindDirection,WindDirectionDegrees,WindSpeedMPH,WindSpeedGustMPH,Humidity,HourlyPrecipIn,Conditions,Clouds,dailyrainin,SoftwareType,DateUTC
2013-02-12 00:00:00,31.0,0.0,30.22,WNW,300,14.0,16.0,27,-99.99,,,-99.99,,2013-02-12 08:00:00,
2013-02-12 00:08:00,30.0,0.0,30.22,NW,317,9.0,14.0,25,-99.99,,,-99.99,,2013-02-12 08:08:00,
2013-02-12 00:16:00,30.0,0.0,30.22,NW,311,10.0,12.0,28,-99.99,,,-99.99,,2013-02-12 08:16:00,
2013-02-12 00:24:00,30.0,0.0,30.22,WNW,302,10.0,12.0,26,-99.99,,,-99.99,,2013-02-12 08:24:00,
2013-02-12 00:32:00,30.0,0.0,30.22,NW,322,9.0,12.0,26,-99.99,,,-99.99,,2013-02-12 08:32:00,
2013-02-12 00:40:00,30.0,0.0,30.22,NW,319,12.0,15.0,28,-99.99,,,-99.99,,2013-02-12 08:40:00,
2013-02-12 00:48:00,31.0,0.0,30.22,NW,323,13.0,15.0,27,-99.99,,,-99.99,,2013-02-12 08:48:00,
2013-02-12 00:56:00,30.0,0.0,30.22,NW,306,13.0,15.0,27,-99.99,,,-99.99,,2013-02-12 08:56:00,
2013-02-12 01:01:00,30.0,0.0,30.22,NW,319,13.0,14.0,26,-99.99,,,-99.99,,2013-02-12 09:01:00,
2013-02-12 01:08:00,30.0,0.0,30.22,WNW,301,9.0,13.0,26,-99.99,,,-99.99,,2013-02-12 09:08:00,
2013-02-12 01:16:00,30.0,0.0,30.22,NW,311,10.0,14.0,27,-99.99,,,-99.99,,2013-02-12 09:16:00,
2013-02-12 01:24:00,30.0,0.0,30.22,NW,310,12.0,12.0,29,-99.99,,,-99.99,,2013-02-12 09:24:00,
2013-02-12 01:32:00,30.0,0.0,30.22,NW,320,9.0,10.0,27,-99.99,,,-99.99,,2013-02-12 09:32:00,
2013-02-12 01:40:00,30.0,0.0,30.22,NW,308,10.0,10.0,29,-99.99,,,-99.99,,2013-02-12 09:40:00,
2013-02-12 01:48:00,29.0,0.0,30.22,NW,320,2.0,9.0,27,-99.99,,,-99.99,,2013-02-12 09:48:00,
2013-02-12 01:56:00,29.0,0.0,30.22,NW,320,3.0,7.0,27,-99.99,,,-99.99,,2013-02-12 09:56:00,
2013-02-12 02:04:00,29.0,0.0,30.22,NW,319,3.0,8.0,30,-99.99,,,-99.99,,2013-02-12 10:04:00,
2013-02-12 02:12:00,29.0,0.0,30.22,NW,322,9.0,9.0,29,-99.99,,,-99.99,,2013-02-12 10:12:00,
2013-02-12 02:20:00,29.0,0.0,30.22,NW,320,7.0,10.0,29,-99.99,,,-99.99,,2013-02-12 10:20:00,
2013-02-12 02:28:00,29.0,0.0,30.22,NW,315,3.0,7.0,27,-99.99,,,-99.99,,2013-02-12 10:28:00,
2013-02-12 02:36:00,29.0,0.0,30.22,NW,324,3.0,8.0,28,-99.99,,,-99.99,,2013-02-12 10:36:00,
2013-02-12 02:44:00,29.0,0.0,30.22,NW,313,5.0,10.0,28,-99.99,,,-99.99,,2013-02-12 10:44:00,
2013-02-12 02:52:00,29.0,0.0,30.22,WNW,286,5.0,9.0,29,-99.99,,,-99.99,,2013-02-12 10:52:00,
2013-02-12 03:00:00,29.0,0.0,30.22,NW,314,12.0,12.0,30,-99.99,,,-99.99,,2013-02-12 11:00:00,
2013-02-12 03:08:00,28.0,0.0,30.23,NW,315,12.0,15.0,30,-99.99,,,-99.99,,2013-02-12 11:08:00,
2013-02-12 03:16:00,28.0,0.0,30.23,WNW,300,12.0,12.0,28,-99.99,,,-99.99,,2013-02-12 11:16:00,
2013-02-12 03:24:00,29.0,0.0,30.23,WNW,302,8.0,12.0,28,-99.99,,,-99.99,,2013-02-12 11:24:00,
2013-02-12 03:32:00,28.0,0.0,30.23,NW,314,0.0,2.0,28,-99.99,,,-99.99,,2013-02-12 11:32:00,
2013-02-12 03:40:00,28.0,0.0,30.24,WNW,300,8.0,12.0,29,-99.99,,,-99.99,,2013-02-12 11:40:00,
2013-02-12 03:48:00,28.0,0.0,30.24,NW,310,10.0,14.0,30,-99.99,,,-99.99,,2013-02-12 11:48:00,
2013-02-12 03:56:00,27.0,0.0,30.24,NW,306,3.0,9.0,30,-99.99,,,-99.99,,2013-02-12 11:56:00,
2013-02-12 04:04:00,27.0,0.0,30.25,NW,318,2.0,7.0,33,-99.99,,,-99.99,,2013-02-12 12:04:00,
2013-02-12 04:12:00,27.0,0.0,30.25,NW,308,6.0,8.0,31,-99.99,,,-99.99,,2013-02-12 12:12:00,
2013-02-12 04:20:00,27.0,0.0,30.25,West,267,3.0,8.0,32,-99.99,,,-99.99,,2013-02-12 12:20:00,
2013-02-12 04:28:00,28.0,0.0,30.25,WNW,303,12.0,12.0,29,-99.99,,,-99.99,,2013-02-12 12:28:00,
2013-02-12 04:36:00,28.0,0.0,30.25,WNW,300,9.0,13.0,30,-99.99,,,-99.99,,2013-02-12 12:36:00,
2013-02-12 04:44:00,28.0,0.0,30.26,NW,313,0.0,1.0,33,-99.99,,,-99.99,,2013-02-12 12:44:00,
2013-02-12 04:52:00,28.0,0.0,30.26,NW,307,7.0,12.0,32,-99.99,,,-99.99,,2013-02-12 12:52:00,
2013-02-12 05:00:00,28.0,0.0,30.26,NW,313,7.0,8.0,30,-99.99,,,-99.99,,2013-02-12 13:00:00,
2013-02-12 05:08:00,27.0,0.0,30.26,WNW,295,8.0,10.0,32,-99.99,,,-99.99,,2013-02-12 13:08:00,
2013-02-12 05:16:00,27.0,0.0,30.26,WNW,303,0.0,5.0,30,-99.99,,,-99.99,,2013-02-12 13:16:00,
2013-02-12 05:24:00,26.0,0.0,30.27,NW,320,0.0,0.0,33,-99.99,,,-99.99,,2013-02-12 13:24:00,
2013-02-12 05:32:00,26.0,0.0,30.27,WNW,302,0.0,1.0,32,-99.99,,,-99.99,,2013-02-12 13:32:00,
2013-02-12 05:40:00,26.0,0.0,30.27,NW,320,0.0,0.0,34,-99.99,,,-99.99,,2013-02-12 13:40:00,
2013-02-12 05:48:00,26.0,0.0,30.27,NW,316,0.0,0.0,33,-99.99,,,-99.99,,2013-02-12 13:48:00,
2013-02-12 05:56:00,25.0,0.0,30.28,NW,310,0.0,0.0,33,-99.99,,,-99.99,,2013-02-12 13:56:00,
2013-02-12 06:04:00,25.0,0.0,30.28,WNW,298,0.0,5.0,36,-99.99,,,-99.99,,2013-02-12 14:04:00,
2013-02-12 06:12:00,25.0,0.0,30.28,WNW,303,3.0,7.0,33,-99.99,,,-99.99,,2013-02-12 14:12:00,
2013-02-12 06:20:00,24.0,0.0,30.28,NW,311,0.0,6.0,36,-99.99,,,-99.99,,2013-02-12 14:20:00,
2013-02-12 06:28:00,24.0,0.0,30.28,WNW,296,3.0,9.0,34,-99.99,,,-99.99,,2013-02-12 14:28:00,
2013-02-12 06:36:00,24.0,0.0,30.28,NW,315,1.0,8.0,37,-99.99,,,-99.99,,2013-02-12 14:36:00,
2013-02-12 06:44:00,25.0,0.0,30.29,NW,319,5.0,8.0,35,-99.99,,,-99.99,,2013-02-12 14:44:00,
2013-02-12 06:52:00,25.0,0.0,30.29,NW,313,0.0,7.0,36,-99.99,,,-99.99,,2013-02-12 14:52:00,
2013-02-12 07:00:00,26.0,0.0,30.29,NW,311,3.0,5.0,32,-99.99,,,-99.99,,2013-02-12 15:00:00,
2013-02-12 07:08:00,27.0,0.0,30.29,WNW,301,7.0,10.0,32,-99.99,,,-99.99,,2013-02-12 15:08:00,
2013-02-12 07:16:00,28.0,0.0,30.30,NW,322,0.0,9.0,30,-99.99,,,-99.99,,2013-02-12 15:16:00,
2013-02-12 07:24:00,29.0,0.0,30.30,NW,307,5.0,8.0,33,-99.99,,,-99.99,,2013-02-12 15:24:00,
2013-02-12 07:32:00,32.0,0.0,30.31,NW,318,5.0,12.0,29,-99.99,,,-99.99,,2013-02-12 15:32:00,
2013-02-12 07:40:00,32.0,0.0,30.31,NW,322,7.0,9.0,28,-99.99,,,-99.99,,2013-02-12 15:40:00,
2013-02-12 07:48:00,34.0,0.0,30.31,NW,314,7.0,10.0,27,-99.99,,,-99.99,,2013-02-12 15:48:00,
2013-02-12 07:56:00,34.0,0.0,30.31,NW,314,8.0,12.0,25,-99.99,,,-99.99,,2013-02-12 15:56:00,
2013-02-12 08:04:00,37.0,0.0,30.32,NW,311,0.0,5.0,27,-99.99,,,-99.99,,2013-02-12 16:04:00,
2013-02-12 08:12:00,38.0,0.0,30.32,NW,324,10.0,12.0,24,-99.99,,,-99.99,,2013-02-12 16:12:00,
2013-02-12 08:20:00,40.0,0.0,30.32,NW,325,0.0,8.0,23,-99.99,,,-99.99,,2013-02-12 16:20:00,
2013-02-12 08:28:00,42.0,0.0,30.32,NW,314,0.0,9.0,20,-99.99,,,-99.99,,2013-02-12 16:28:00,
2013-02-12 08:36:00,44.0,0.0,30.32,NNW,328,6.0,9.0,21,-99.99,,,-99.99,,2013-02-12 16:36:00,
2013-02-12 08:44:00,46.0,0.0,30.32,NW,323,0.0,7.0,19,-99.99,,,-99.99,,2013-02-12 16:44:00,
2013-02-12 08:52:00,47.0,0.0,30.32,NW,320,0.0,7.0,17,-99.99,,,-99.99,,2013-02-12 16:52:00,
2013-02-12 09:00:00,46.0,0.0,30.33,NNW,329,0.0,0.0,16,-99.99,,,-99.99,,2013-02-12 17:00:00,
2013-02-12 09:08:00,45.0,0.0,30.33,NNW,329,0.0,0.0,19,-99.99,,,-99.99,,2013-02-12 17:08:00,
2013-02-12 09:16:00,48.0,0.0,30.33,NNW,330,0.0,0.0,18,-99.99,,,-99.99,,2013-02-12 17:16:00,
2013-02-12 09:24:00,47.0,0.0,30.33,NNW,330,0.0,3.0,21,-99.99,,,-99.99,,2013-02-12 17:24:00,
2013-02-12 09:32:00,47.0,0.0,30.33,NNW,330,0.0,0.0,18,-99.99,,,-99.99,,2013-02-12 17:32:00,
2013-02-12 09:40:00,49.0,0.0,30.33,NNW,334,0.0,0.0,17,-99.99,,,-99.99,,2013-02-12 17:40:00,
2013-02-12 09:48:00,49.0,0.0,30.33,NNW,335,0.0,0.0,17,-99.99,,,-99.99,,2013-02-12 17:48:00,
2013-02-12 09:56:00,0.0,0.0,-0.01,North,0,0.0,0.0,0,-99.99,,,-99.99,,2013-02-12 17:56:00,
2013-02-12 10:04:00,50.0,0.0,30.33,SSW,205,0.0,0.0,19,-99.99,,,-99.99,,2013-02-12 18:04:00,
2013-02-12 10:12:00,51.0,0.0,30.33,SE,146,0.0,0.0,15,-99.99,,,-99.99,,2013-02-12 18:12:00,
2013-02-12 10:20:00,50.0,0.0,30.33,SE,134,0.0,0.0,16,-99.99,,,-99.99,,2013-02-12 18:20:00,
2013-02-12 10:28:00,50.0,0.0,30.33,WSW,243,0.0,5.0,16,-99.99,,,-99.99,,2013-02-12 18:28:00,
2013-02-12 10:36:00,52.0,0.0,30.33,WSW,253,0.0,0.0,15,-99.99,,,-99.99,,2013-02-12 18:36:00,
2013-02-12 10:44:00,52.0,0.0,30.33,WSW,253,0.0,0.0,15,-99.99,,,-99.99,,2013-02-12 18:44:00,
2013-02-12 10:52:00,54.0,0.0,30.32,NW,325,0.0,1.0,19,-99.99,,,-99.99,,2013-02-12 18:52:00,
2013-02-12 11:00:00,53.0,0.0,30.32,NNW,339,0.0,5.0,18,-99.99,,,-99.99,,2013-02-12 19:00:00,
2013-02-12 11:08:00,55.0,0.0,30.32,NW,322,0.0,2.0,15,-99.99,,,-99.99,,2013-02-12 19:08:00,
2013-02-12 11:16:00,54.0,0.0,30.31,West,260,0.0,0.0,17,-99.99,,,-99.99,,2013-02-12 19:16:00,
2013-02-12 11:24:00,55.0,0.0,30.31,NNW,339,0.0,3.0,15,-99.99,,,-99.99,,2013-02-12 19:24:00,
2013-02-12 11:32:00,54.0,0.0,30.31,WSW,244,0.0,0.0,16,-99.99,,,-99.99,,2013-02-12 19:32:00,
2013-02-12 11:40:00,56.0,0.0,30.30,NW,314,5.0,7.0,15,-99.99,,,-99.99,,2013-02-12 19:40:00,
2013-02-12 11:48:00,55.0,0.0,30.30,NW,307,0.0,3.0,16,-99.99,,,-99.99,,2013-02-12 19:48:00,
2013-02-12 11:56:00,54.0,0.0,30.30,West,271,3.0,5.0,15,-99.99,,,-99.99,,2013-02-12 19:56:00,
2013-02-12 12:04:00,53.0,0.0,30.29,SW,236,5.0,6.0,14,-99.99,,,-99.99,,2013-02-12 20:04:00,
2013-02-12 12:12:00,55.0,0.0,30.29,NW,317,6.0,6.0,14,-99.99,,,-99.99,,2013-02-12 20:12:00,
2013-02-12 12:20:00,57.0,0.0,30.28,NNW,334,3.0,7.0,12,-99.99,,,-99.99,,2013-02-12 20:20:00,
2013-02-12 12:28:00,56.0,0.0,30.28,NNW,336,2.0,3.0,15,-99.99,,,-99.99,,2013-02-12 20:28:00,
2013-02-12 12:36:00,56.0,0.0,30.28,NNW,338,3.0,5.0,14,-99.99,,,-99.99,,2013-02-12 20:36:00,
2013-02-12 12:44:00,57.0,0.0,30.27,NNW,334,3.0,7.0,15,-99.99,,,-99.99,,2013-02-12 20:44:00,
2013-02-12 12:52:00,56.0,0.0,30.27,North,2,0.0,8.0,13,-99.99,,,-99.99,,2013-02-12 20:52:00,
2013-02-12 13:00:00,56.0,0.0,30.27,NNW,332,5.0,6.0,13,-99.99,,,-99.99,,2013-02-12 21:00:00,
2013-02-12 13:08:00,58.0,0.0,30.26,NNW,330,2.0,7.0,15,-99.99,,,-99.99,,2013-02-12 21:08:00,
2013-02-12 13:16:00,57.0,0.0,30.26,South,188,0.0,8.0,18,-99.99,,,-99.99,,2013-02-12 21:16:00,
2013-02-12 13:24:00,56.0,0.0,30.25,SSE,156,9.0,13.0,13,-99.99,,,-99.99,,2013-02-12 21:24:00,
2013-02-12 13:32:00,56.0,0.0,30.25,NNW,343,0.0,2.0,13,-99.99,,,-99.99,,2013-02-12 21:32:00,
2013-02-12 13:40:00,56.0,0.0,30.25,WSW,256,3.0,3.0,13,-99.99,,,-99.99,,2013-02-12 21:40:00,
2013-02-12 13:48:00,56.0,0.0,30.24,West,268,2.0,3.0,14,-99.99,,,-99.99,,2013-02-12 21:48:00,
2013-02-12 13:56:00,57.0,0.0,30.24,NW,308,0.0,1.0,15,-99.99,,,-99.99,,2013-02-12 21:56:00,
2013-02-12 14:04:00,57.0,0.0,30.24,NNW,341,1.0,5.0,13,-99.99,,,-99.99,,2013-02-12 22:04:00,
2013-02-12 14:12:00,58.0,0.0,30.24,WSW,250,0.0,3.0,13,-99.99,,,-99.99,,2013-02-12 22:12:00,
2013-02-12 14:20:00,56.0,0.0,30.24,South,178,3.0,14.0,13,-99.99,,,-99.99,,2013-02-12 22:20:00,
2013-02-12 14:28:00,56.0,0.0,30.24,SW,227,5.0,12.0,15,-99.99,,,-99.99,,2013-02-12 22:28:00,
2013-02-12 14:36:00,56.0,0.0,30.23,NNE,26,0.0,15.0,13,-99.99,,,-99.99,,2013-02-12 22:36:00,
2013-02-12 14:44:00,56.0,0.0,30.24,NNW,339,1.0,5.0,14,-99.99,,,-99.99,,2013-02-12 22:44:00,
2013-02-12 14:52:00,56.0,0.0,30.24,SE,129,12.0,14.0,13,-99.99,,,-99.99,,2013-02-12 22:52:00,
2013-02-12 15:00:00,55.0,0.0,30.23,SSW,208,10.0,13.0,14,-99.99,,,-99.99,,2013-02-12 23:00:00,
2013-02-12 15:08:00,55.0,0.0,30.23,West,266,5.0,8.0,19,-99.99,,,-99.99,,2013-02-12 23:08:00,
2013-02-12 15:16:00,55.0,0.0,30.23,SSE,152,13.0,16.0,16,-99.99,,,-99.99,,2013-02-12 23:16:00,
2013-02-12 15:24:00,55.0,0.0,30.23,SW,234,0.0,8.0,16,-99.99,,,-99.99,,2013-02-12 23:24:00,
2013-02-12 15:32:00,56.0,0.0,30.23,SSW,208,10.0,16.0,13,-99.99,,,-99.99,,2013-02-12 23:32:00,
2013-02-12 15:40:00,55.0,0.0,30.23,SW,216,10.0,13.0,14,-99.99,,,-99.99,,2013-02-12 23:40:00,
2013-02-12 15:48:00,55.0,0.0,30.23,WSW,251,10.0,12.0,14,-99.99,,,-99.99,,2013-02-12 23:48:00,
2013-02-12 15:56:00,55.0,0.0,30.23,SW,226,12.0,15.0,16,-99.99,,,-99.99,,2013-02-12 23:56:00,
2013-02-12 16:04:00,55.0,0.0,30.23,West,262,8.0,13.0,14,-99.99,,,-99.99,,2013-02-13 00:04:00,
2013-02-12 16:12:00,55.0,0.0,30.23,SSW,206,13.0,16.0,14,-99.99,,,-99.99,,2013-02-13 00:12:00,
2013-02-12 16:20:00,55.0,0.0,30.23,SW,228,6.0,7.0,14,-99.99,,,-99.99,,2013-02-13 00:20:00,
2013-02-12 16:28:00,55.0,0.0,30.23,SW,228,0.0,6.0,17,-99.99,,,-99.99,,2013-02-13 00:28:00,
2013-02-12 16:36:00,55.0,0.0,30.23,SW,228,6.0,9.0,17,-99.99,,,-99.99,,2013-02-13 00:36:00,
2013-02-12 16:44:00,55.0,0.0,30.23,SSW,203,0.0,0.0,16,-99.99,,,-99.99,,2013-02-13 00:44:00,
2013-02-12 16:52:00,54.0,0.0,30.23,WSW,239,0.0,0.0,16,-99.99,,,-99.99,,2013-02-13 00:52:00,
2013-02-12 17:00:00,54.0,0.0,30.23,WSW,241,0.0,0.0,17,-99.99,,,-99.99,,2013-02-13 01:00:00,
2013-02-12 17:08:00,54.0,0.0,30.23,WSW,240,0.0,0.0,15,-99.99,,,-99.99,,2013-02-13 01:08:00,
2013-02-12 17:16:00,54.0,0.0,30.23,WSW,241,0.0,0.0,14,-99.99,,,-99.99,,2013-02-13 01:16:00,
2013-02-12 17:24:00,53.0,0.0,30.23,SW,229,0.0,0.0,15,-99.99,,,-99.99,,2013-02-13 01:24:00,
2013-02-12 17:32:00,53.0,0.0,30.23,SSW,209,0.0,0.0,18,-99.99,,,-99.99,,2013-02-13 01:32:00,
2013-02-12 17:40:00,53.0,0.0,30.23,SSW,210,0.0,0.0,15,-99.99,,,-99.99,,2013-02-13 01:40:00,
2013-02-12 17:48:00,53.0,0.0,30.23,SSW,209,0.0,0.0,17,-99.99,,,-99.99,,2013-02-13 01:48:00,
2013-02-12 17:56:00,51.0,0.0,30.24,North,3,0.0,0.0,19,-99.99,,,-99.99,,2013-02-13 01:56:00,
2013-02-12 18:04:00,51.0,0.0,30.24,NNW,335,2.0,5.0,18,-99.99,,,-99.99,,2013-02-13 02:04:00,
2013-02-12 18:12:00,51.0,0.0,30.24,NNW,336,2.0,5.0,16,-99.99,,,-99.99,,2013-02-13 02:12:00,
2013-02-12 18:20:00,51.0,0.0,30.24,NNW,337,0.0,0.0,17,-99.99,,,-99.99,,2013-02-13 02:20:00,
2013-02-12 18:28:00,50.0,0.0,30.24,NNW,338,0.0,0.0,19,-99.99,,,-99.99,,2013-02-13 02:28:00,
2013-02-12 18:36:00,50.0,0.0,30.24,NNW,338,1.0,5.0,18,-99.99,,,-99.99,,2013-02-13 02:36:00,
2013-02-12 18:44:00,50.0,0.0,30.24,North,0,0.0,1.0,16,-99.99,,,-99.99,,2013-02-13 02:44:00,
2013-02-12 18:52:00,46.0,0.0,30.24,WNW,288,0.0,5.0,20,-99.99,,,-99.99,,2013-02-13 02:52:00,
2013-02-12 19:00:00,44.0,0.0,30.24,WNW,288,9.0,12.0,18,-99.99,,,-99.99,,2013-02-13 03:00:00,
2013-02-12 19:08:00,42.0,0.0,30.24,WNW,294,5.0,12.0,22,-99.99,,,-99.99,,2013-02-13 03:08:00,
2013-02-12 19:16:00,42.0,0.0,30.24,NW,310,5.0,8.0,22,-99.99,,,-99.99,,2013-02-13 03:16:00,
2013-02-12 19:24:00,42.0,0.0,30.24,NW,317,6.0,7.0,20,-99.99,,,-99.99,,2013-02-13 03:24:00,
2013-02-12 19:32:00,43.0,0.0,30.24,WNW,300,6.0,9.0,22,-99.99,,,-99.99,,2013-02-13 03:32:00,
2013-02-12 19:40:00,42.0,0.0,30.25,NW,312,10.0,12.0,23,-99.99,,,-99.99,,2013-02-13 03:40:00,
2013-02-12 19:48:00,40.0,0.0,30.25,NW,312,12.0,13.0,24,-99.99,,,-99.99,,2013-02-13 03:48:00,
2013-02-12 19:56:00,40.0,0.0,30.25,NW,314,9.0,14.0,23,-99.99,,,-99.99,,2013-02-13 03:56:00,
2013-02-12 20:04:00,39.0,0.0,30.25,NNW,328,12.0,14.0,24,-99.99,,,-99.99,,2013-02-13 04:04:00,
2013-02-12 20:12:00,40.0,0.0,30.25,NW,304,14.0,15.0,24,-99.99,,,-99.99,,2013-02-13 04:12:00,
2013-02-12 20:20:00,40.0,0.0,30.25,WNW,300,10.0,14.0,25,-99.99,,,-99.99,,2013-02-13 04:20:00,
2013-02-12 20:28:00,40.0,0.0,30.25,NW,317,15.0,15.0,26,-99.99,,,-99.99,,2013-02-13 04:28:00,
2013-02-12 20:36:00,40.0,0.0,30.26,NW,320,10.0,13.0,24,-99.99,,,-99.99,,2013-02-13 04:36:00,
2013-02-12 20:44:00,40.0,0.0,30.26,NW,324,12.0,13.0,22,-99.99,,,-99.99,,2013-02-13 04:44:00,
2013-02-12 20:52:00,39.0,0.0,30.26,NW,324,7.0,12.0,22,-99.99,,,-99.99,,2013-02-13 04:52:00,
2013-02-12 21:00:00,39.0,0.0,30.26,NW,325,10.0,13.0,27,-99.99,,,-99.99,,2013-02-13 05:00:00,
2013-02-12 21:04:00,38.0,0.0,30.26,NW,321,12.0,12.0,25,-99.99,,,-99.99,,2013-02-13 05:04:00,
2013-02-12 21:08:00,38.0,0.0,30.26,NW,316,12.0,12.0,26,-99.99,,,-99.99,,2013-02-13 05:08:00,
2013-02-12 21:16:00,38.0,0.0,30.26,NW,311,9.0,13.0,24,-99.99,,,-99.99,,2013-02-13 05:16:00,
2013-02-12 21:24:00,37.0,0.0,30.26,NW,313,10.0,13.0,24,-99.99,,,-99.99,,2013-02-13 05:24:00,
2013-02-12 21:32:00,37.0,0.0,30.26,NW,326,10.0,12.0,26,-99.99,,,-99.99,,2013-02-13 05:32:00,
2013-02-12 21:40:00,36.0,0.0,30.26,NW,317,2.0,14.0,30,-99.99,,,-99.99,,2013-02-13 05:40:00,
2013-02-12 21:48:00,37.0,0.0,30.26,NW,321,13.0,14.0,27,-99.99,,,-99.99,,2013-02-13 05:48:00,
2013-02-12 21:56:00,37.0,0.0,30.26,NW,308,10.0,14.0,26,-99.99,,,-99.99,,2013-02-13 05:56:00,
2013-02-12 22:04:00,36.0,0.0,30.26,WNW,303,12.0,14.0,27,-99.99,,,-99.99,,2013-02-13 06:04:00,
2013-02-12 22:12:00,36.0,0.0,30.26,NW,315,13.0,14.0,26,-99.99,,,-99.99,,2013-02-13 06:12:00,
2013-02-12 22:20:00,36.0,0.0,30.26,NW,313,13.0,13.0,28,-99.99,,,-99.99,,2013-02-13 06:20:00,
2013-02-12 22:28:00,36.0,0.0,30.26,WNW,300,10.0,14.0,28,-99.99,,,-99.99,,2013-02-13 06:28:00,
2013-02-12 22:36:00,36.0,0.0,30.26,NW,318,12.0,14.0,28,-99.99,,,-99.99,,2013-02-13 06:36:00,
2013-02-12 22:44:00,35.0,0.0,30.26,NW,308,13.0,13.0,26,-99.99,,,-99.99,,2013-02-13 06:44:00,
2013-02-12 22:52:00,35.0,0.0,30.26,NW,312,10.0,14.0,27,-99.99,,,-99.99,,2013-02-13 06:52:00,
2013-02-12 23:00:00,35.0,0.0,30.26,NW,316,9.0,13.0,27,-99.99,,,-99.99,,2013-02-13 07:00:00,
2013-02-12 23:08:00,35.0,0.0,30.26,NW,320,10.0,13.0,28,-99.99,,,-99.99,,2013-02-13 07:08:00,
2013-02-12 23:16:00,34.0,0.0,30.26,NW,306,10.0,13.0,28,-99.99,,,-99.99,,2013-02-13 07:16:00,
2013-02-12 23:24:00,34.0,0.0,30.26,NW,317,13.0,14.0,28,-99.99,,,-99.99,,2013-02-13 07:24:00,
2013-02-12 23:32:00,34.0,0.0,30.26,WNW,296,12.0,13.0,32,-99.99,,,-99.99,,2013-02-13 07:32:00,
2013-02-12 23:40:00,35.0,0.0,30.27,NW,310,10.0,14.0,29,-99.99,,,-99.99,,2013-02-13 07:40:00,
2013-02-12 23:48:00,35.0,0.0,30.27,WNW,303,9.0,12.0,28,-99.99,,,-99.99,,2013-02-13 07:48:00,
2013-02-12 23:56:00,34.0,0.0,30.27,WNW,295,10.0,13.0,28,-99.99,,,-99.99,,2013-02-13 07:56:00,